[[{"header":{"parameterUnit":"m.s-1","parameterCategory":1,"la1":30.2991,"la2":30.254,"lo1":-89.0895,"lo2":-89.0444,"dy":0.0017,"dx":0.0017,"nx":28,"ny":28,"refTime":"2024-03-03T09:00:00:Z","depth":0,"parameterNumber":2,"parameterNumberName":"U-component_of_WINDS"},"data":[0,0,0,0,0,0,0,0,0,0,0,0,0,0,0,0,0,0,0,0,0,0,0,0,0,0,0,0,0,0,0,0,0,0,0,0,0,0,0,0,0,0,0,0,0,0,0,0,0,0,0,0,0,0,0,0,0,0,-6.5724,-6.5724,0,-6.5776,-6.5776,-6.5777,-6.5683,-6.568,-6.5677,-6.5674,-6.5723,-6.5727,-6.5732,0,0,0,0,0,0,0,0,0,0,0,0,0,-6.5542,-6.5545,-6.5724,-6.5724,-6.5725,-6.5776,-6.5776,-6.5777,-6.5684,-6.568,-6.5676,-6.5673,-6.5722,-6.5727,-6.5732,0,0,0,0,0,0,0,0,0,0,0,0,0,-6.561,-6.5547,-6.5724,-6.5685,-6.5682,-6.5775,-6.5776,-6.5777,-6.5685,-6.568,-6.5675,-6.5671,-6.572,-6.5726,-6.5733,-6.5865,0,0,-6.5752,-6.5755,0,0,0,0,0,0,0,0,-6.5606,-6.5617,-6.569,-6.5688,-6.5684,-6.5718,-6.573,-6.5807,-6.5686,-6.5683,-6.5674,-6.5669,-6.5725,-6.5731,-6.5751,-6.5868,-6.587,-6.5753,-6.5756,-6.5759,-6.5761,0,0,0,0,0,0,0,-6.5601,-6.5614,-6.5744,-6.5691,-6.5688,-6.5664,-6.5668,-6.5744,-6.573,-6.5683,-6.5677,-6.5684,-6.5723,-6.5745,-6.5751,-6.5871,-6.5752,-6.5758,-6.5762,-6.5764,-6.6099,-6.6104,0,0,0,0,0,0,-6.5602,-6.561,-6.5742,-6.5746,-6.5633,-6.5671,-6.5676,-6.5712,-6.5729,-6.5727,-6.5688,-6.568,-6.5736,-6.5744,-6.5753,-6.5908,-6.5759,-6.5765,-6.5769,-6.6094,-6.61,-6.6106,0,0,0,0,0,0,-6.5598,-6.5615,-6.574,-6.5676,-6.5691,-6.5679,-6.572,-6.5716,-6.5737,-6.5733,-6.5729,-6.5713,-6.5733,-6.5744,-6.5838,-6.5908,-6.5768,-6.5774,-6.6088,-6.6096,-6.6103,-6.622,0,0,0,0,0,0,-6.5594,-6.5614,-6.5665,-6.5678,-6.5694,-6.5826,-6.5725,-6.572,-6.5749,-6.5738,-6.5755,-6.5753,-6.573,-6.5829,-6.5845,-6.5914,-6.5779,-6.6081,-6.6091,-6.61,-6.621,-6.6231,-6.6249,0,0,0,0,0,-6.5587,-6.5695,-6.5668,-6.5684,-6.5758,-6.583,-6.5839,-6.5811,-6.5755,-6.5805,-6.5803,-6.5753,-6.5899,-6.584,-6.5856,-6.5929,-6.6077,-6.6089,-6.61,-6.6201,-6.6227,-6.6248,0,0,0,0,0,0,-6.5687,-6.5696,-6.5665,-6.5781,-6.5806,-6.5814,-6.5876,-6.5839,-6.5879,-6.5868,-6.583,-6.5835,-6.5937,-6.5943,-6.5877,-6.6058,-6.5978,-6.5994,-6.605,-6.6074,-6.6093,-6.6088,-6.5784,0,0,0,0,0,-6.5723,-6.5783,-6.5786,-6.5888,-6.5902,-6.5888,-6.5918,-6.5895,-6.5919,-6.5928,-6.5932,-6.5956,-6.6008,-6.6042,-6.6089,-6.6212,-6.6213,-6.627,-6.629,-6.6306,-6.6318,-6.6383,-6.6408,-6.6143,-6.6143,-6.6143,0,0,-6.5797,-6.5809,-6.5848,-6.5908,-6.5925,-6.5986,-6.5897,-6.5965,-6.601,-6.5938,-6.6027,-6.6032,-6.6056,-6.6166,-6.6214,-6.6174,-6.6392,-6.632,-6.6333,-6.6337,-6.6397,-6.6422,-6.6444,-6.6151,-6.6149,-6.6148,0,0,-6.5961,-6.5978,-6.6063,-6.6083,-6.611,-6.61,-6.6121,-6.6137,-6.6137,-6.6227,-6.6174,-6.6227,-6.6316,-6.6336,-6.6357,-6.6534,-6.6489,-6.655,-6.665,-6.6714,-6.6735,-6.6753,-6.6814,-6.6836,-6.6564,-6.6564,-6.6564,0,-6.6048,-6.614,-6.6112,-6.6184,-6.6212,-6.6153,-6.6238,-6.6258,-6.6299,-6.6319,-6.6274,-6.6386,-6.6398,-6.6511,-6.6554,-6.6575,-6.6596,-6.6546,-6.6734,-6.6752,-6.6769,-6.6826,-6.6849,-6.6571,-6.657,-6.6569,-6.6569,0,-6.6245,-6.6309,-6.6375,-6.6418,-6.6453,-6.6532,-6.6516,-6.6555,-6.653,-6.6525,-6.6617,-6.6631,-6.6679,-6.6705,-6.6681,-6.6815,-6.6789,-6.6741,-6.6658,-6.6802,-6.6855,-6.6877,-6.6581,-6.6579,-6.6576,-6.6575,0,0,-6.6469,-6.6498,-6.6522,-6.6541,-6.6569,-6.6617,-6.6694,-6.6743,-6.6777,-6.6809,-6.687,-6.695,-6.6905,-6.693,-6.6907,-6.6964,-6.7101,-6.6908,-6.6908,-6.6941,-6.7248,-6.7281,-6.7307,-6.7073,-6.7078,-6.7081,-6.7245,0,-6.6631,-6.6764,-6.6742,-6.687,-6.6929,-6.6876,-6.6942,-6.6966,-6.6965,-6.7014,-6.7012,-6.7067,-6.7006,-6.702,-6.7074,-6.7073,-6.7161,-6.7061,-6.7128,-6.7131,-6.712,-6.7336,-6.7371,-6.7525,-6.7265,-6.7269,-6.7272,0,-6.6836,-6.6876,-6.7011,-6.703,-6.7054,-6.7115,-6.7158,-6.7207,-6.7233,-6.7228,-6.7258,-6.7226,-6.7302,-6.7223,-6.7326,-6.7258,-6.7285,-6.729,-6.7295,-6.7296,-6.7207,-6.734,-6.7573,-6.7595,-6.7305,-6.7302,-6.73,0,-6.6982,-6.7071,-6.7163,-6.7181,-6.7207,-6.7251,-6.7263,-6.7285,-6.7316,-6.7355,-6.7375,-6.7422,-6.7447,-6.7484,-6.7465,-6.7409,-6.7571,-6.7491,-6.7567,-6.7568,-6.76,-6.7597,-6.7837,-6.7624,-6.7624,-6.7623,-6.7623,0,-6.7163,-6.7246,-6.723,-6.7286,-6.7378,-6.7354,-6.7445,-6.7451,-6.7472,-6.7528,-6.7486,-6.7538,-6.7512,-6.7564,-6.755,-6.7637,-6.7649,-6.7646,-6.764,-6.7647,-6.7647,-6.7661,-6.7649,-6.7629,-6.7628,-6.7627,-6.7626,0,-6.734,-6.7332,-6.7429,-6.7447,-6.7453,-6.752,-6.7534,-6.7587,-6.7584,-6.7655,-6.767,-6.7665,-6.7723,-6.771,-6.7773,-6.7764,-6.7873,-6.7856,-6.7864,-6.7858,-6.7934,-6.7926,-6.8189,-6.8221,-6.799,-6.7993,-6.7995,0,-6.7453,-6.7517,-6.7542,-6.7578,-6.7594,-6.7651,-6.7684,-6.7663,-6.7698,-6.7735,-6.7782,-6.7838,-6.788,-6.7975,-6.7976,-6.8025,-6.8007,-6.8096,-6.8013,-6.8018,-6.8004,-6.7999,-6.8004,-6.811,-6.8113,-6.8115,-6.8117,0,-6.7655,-6.7649,-6.7698,-6.7747,-6.7787,-6.7824,-6.7857,-6.7888,-6.787,-6.7913,-6.7972,-6.8006,-6.8072,-6.8126,-6.8172,-6.8183,-6.8147,-6.8144,-6.8163,-6.8169,-6.817,-6.8167,-6.7904,-6.8136,-6.8134,-6.8133,-6.8132,-6.8131,-6.7801,-6.7855,-6.7882,-6.7938,-6.7962,-6.7994,-6.8044,-6.8049,-6.8099,-6.8152,-6.8137,-6.8205,-6.8231,-6.8288,-6.8306,-6.8358,-6.8325,-6.8354,-6.836,-6.8367,-6.8375,-6.8166,-6.8367,-6.8366,-6.8366,-6.8365,-6.8365,0,-6.7997,-6.8013,-6.8066,-6.8114,-6.8159,-6.8125,-6.816,-6.8199,-6.826,-6.8288,-6.8332,-6.8401,-6.8454,-6.8462,-6.8512,-6.8552,-6.8537,-6.8566,-6.856,-6.8563,-6.8404,-6.838,-6.8578,-6.8577,-6.8577,-6.8577,-6.8577,-6.8577,-6.8104,-6.8193,-6.8191,-6.8292,-6.8306,-6.8374,-6.8397,-6.8426,-6.8448,-6.8528,-6.8573,-6.8579,-6.8598,-6.865,-6.8698,-6.8698,-6.8717,-6.8752,-6.8746,-6.8596,-6.8575,-6.8554,-6.8532,-6.8758,-6.8758,-6.8901,-6.8902,-6.8903]},{"header":{"parameterUnit":"m.s-1","parameterCategory":1,"la1":30.2991,"la2":30.254,"lo1":-89.0895,"lo2":-89.0444,"dy":0.0017,"dx":0.0017,"nx":28,"ny":28,"refTime":"2024-03-03T09:00:00:Z","depth":0,"parameterNumber":3,"parameterNumberName":"V-component_of_WINDS"},"data":[0,0,0,0,0,0,0,0,0,0,0,0,0,0,0,0,0,0,0,0,0,0,0,0,0,0,0,0,0,0,0,0,0,0,0,0,0,0,0,0,0,0,0,0,0,0,0,0,0,0,0,0,0,0,0,0,0,0,1.7647,1.7648,0,1.7691,1.7692,1.7692,1.7693,1.7692,1.7692,1.7691,1.7734,1.7736,1.7737,0,0,0,0,0,0,0,0,0,0,0,0,0,1.7565,1.7567,1.7647,1.7648,1.7649,1.7691,1.7692,1.7692,1.7693,1.7692,1.7691,1.7691,1.7734,1.7736,1.7737,0,0,0,0,0,0,0,0,0,0,0,0,0,1.7604,1.7567,1.7647,1.7654,1.7655,1.7691,1.7692,1.7692,1.7693,1.7692,1.7691,1.7691,1.7733,1.7735,1.7738,1.777,0,0,1.7745,1.7746,0,0,0,0,0,0,0,0,1.7602,1.7607,1.7652,1.7654,1.7655,1.7686,1.7678,1.7718,1.7693,1.7678,1.7691,1.769,1.7719,1.7722,1.7732,1.7772,1.7773,1.7746,1.7747,1.7748,1.7749,0,0,0,0,0,0,0,1.7599,1.7605,1.7665,1.7653,1.7655,1.7655,1.766,1.7686,1.7702,1.768,1.768,1.7685,1.7719,1.773,1.7733,1.7774,1.7746,1.7748,1.7749,1.775,1.7845,1.7846,0,0,0,0,0,0,1.7595,1.7603,1.7663,1.7666,1.7626,1.7657,1.7662,1.7677,1.7702,1.7705,1.7686,1.7685,1.7726,1.773,1.7735,1.7776,1.7748,1.775,1.7752,1.7844,1.7846,1.7847,0,0,0,0,0,0,1.7593,1.76,1.7662,1.7635,1.7642,1.7659,1.7675,1.7678,1.7689,1.7707,1.771,1.7694,1.7725,1.7731,1.7762,1.7777,1.7752,1.7754,1.7843,1.7845,1.7846,1.7857,0,0,0,0,0,0,1.7591,1.76,1.7612,1.7635,1.7644,1.7688,1.7676,1.7679,1.7693,1.7692,1.7715,1.7718,1.7725,1.7758,1.7764,1.778,1.7756,1.7842,1.7844,1.7846,1.7855,1.7859,1.7862,0,0,0,0,0,1.7588,1.7612,1.7612,1.7619,1.7659,1.7689,1.7694,1.7702,1.7694,1.7707,1.7719,1.7717,1.7775,1.7761,1.7768,1.7785,1.7841,1.7843,1.7845,1.7854,1.7858,1.7862,0,0,0,0,0,0,1.7588,1.7615,1.7615,1.7647,1.7666,1.7689,1.7704,1.7706,1.7726,1.7724,1.7734,1.7739,1.777,1.778,1.7765,1.7819,1.7807,1.7811,1.7811,1.7815,1.7818,1.7815,1.7758,0,0,0,0,0,1.7592,1.7614,1.7636,1.7662,1.7672,1.7687,1.77,1.7705,1.7724,1.7732,1.7746,1.7764,1.7787,1.7801,1.7823,1.7857,1.7863,1.7872,1.7875,1.7878,1.7881,1.7903,1.7908,1.7854,1.7854,1.7854,0,0,1.76,1.7618,1.7631,1.7663,1.7678,1.7701,1.7693,1.7717,1.7735,1.7735,1.7766,1.7777,1.7799,1.7832,1.7847,1.7842,1.7898,1.7881,1.7883,1.7885,1.7906,1.7911,1.7916,1.7856,1.7856,1.7855,0,0,1.7627,1.7642,1.7667,1.7683,1.7706,1.7717,1.7723,1.7746,1.7754,1.7785,1.7787,1.7808,1.7846,1.7862,1.7875,1.7912,1.7912,1.7919,1.7935,1.7956,1.7961,1.7964,1.798,1.7985,1.7922,1.7922,1.7922,0,1.7634,1.7669,1.7679,1.7705,1.772,1.7723,1.7749,1.7764,1.7793,1.7803,1.7797,1.7847,1.7861,1.79,1.7909,1.7919,1.7927,1.7916,1.7959,1.7963,1.7967,1.7982,1.7987,1.7923,1.7923,1.7923,1.7923,0,1.7678,1.7703,1.772,1.775,1.7767,1.7792,1.7807,1.7823,1.7827,1.7839,1.7872,1.789,1.7916,1.7926,1.7929,1.7966,1.7962,1.7957,1.7945,1.7973,1.7987,1.7992,1.7924,1.7924,1.7923,1.7923,0,0,1.7704,1.7742,1.7748,1.7763,1.7791,1.781,1.7837,1.7864,1.7879,1.7899,1.7923,1.7957,1.7954,1.7969,1.7974,1.7993,1.8024,1.7986,1.7987,1.7994,1.8068,1.8072,1.8078,1.8024,1.8025,1.8026,1.8067,0,1.7736,1.7783,1.7795,1.7836,1.786,1.7865,1.7889,1.7909,1.7921,1.7943,1.7956,1.7981,1.7974,1.7984,1.8002,1.8016,1.8039,1.8013,1.8047,1.8048,1.8043,1.8085,1.8089,1.8127,1.8072,1.8073,1.8074,0,1.7778,1.7802,1.7846,1.7874,1.7884,1.7905,1.7933,1.7954,1.7978,1.7985,1.8004,1.8009,1.8038,1.8025,1.8066,1.8048,1.8063,1.8072,1.8074,1.8078,1.8063,1.8092,1.8138,1.8145,1.8082,1.8081,1.8081,0,1.7795,1.7838,1.7871,1.7883,1.7916,1.7931,1.7945,1.7968,1.7985,1.8009,1.8021,1.8047,1.8062,1.8083,1.8096,1.8085,1.8137,1.8124,1.8145,1.8145,1.8156,1.8155,1.8207,1.8163,1.8163,1.8163,1.8163,0,1.7829,1.7856,1.788,1.79,1.7932,1.7945,1.7976,1.799,1.8011,1.8035,1.804,1.8062,1.8077,1.8102,1.8112,1.8146,1.8152,1.816,1.8162,1.816,1.8159,1.817,1.8168,1.8164,1.8164,1.8164,1.8164,0,1.7853,1.787,1.7907,1.7936,1.7944,1.7966,1.7991,1.8011,1.8025,1.8055,1.8063,1.8083,1.8113,1.8128,1.8164,1.8171,1.821,1.821,1.8202,1.8204,1.8225,1.8223,1.8286,1.8296,1.8244,1.8245,1.8245,0,1.7874,1.7896,1.7929,1.7946,1.7961,1.7988,1.8006,1.802,1.8039,1.807,1.8087,1.8117,1.8142,1.819,1.8208,1.8237,1.8238,1.8259,1.8242,1.8241,1.8241,1.824,1.8243,1.8261,1.8262,1.8262,1.8263,0,1.7911,1.7919,1.7945,1.7975,1.7997,1.8021,1.8045,1.8058,1.8077,1.8098,1.8129,1.8149,1.8188,1.8219,1.8249,1.8264,1.8267,1.8268,1.8274,1.8273,1.8268,1.8273,1.8212,1.8266,1.8266,1.8265,1.8265,1.8265,1.7935,1.7956,1.7983,1.8013,1.8033,1.8056,1.8078,1.8095,1.8122,1.8155,1.8162,1.8196,1.8222,1.8264,1.828,1.8307,1.8303,1.8312,1.8314,1.8317,1.8319,1.8263,1.8312,1.8312,1.8312,1.8312,1.8312,0,1.7974,1.7992,1.802,1.8054,1.8078,1.808,1.8108,1.8128,1.8158,1.8182,1.8208,1.8245,1.8276,1.8298,1.8329,1.8347,1.8349,1.8355,1.8354,1.8358,1.832,1.8312,1.8353,1.8353,1.8352,1.8352,1.8352,1.8352,1.7997,1.8033,1.8045,1.8091,1.811,1.8144,1.816,1.8181,1.8201,1.8244,1.827,1.8284,1.8308,1.8342,1.8371,1.8377,1.8389,1.8395,1.8401,1.8364,1.836,1.8356,1.8349,1.8397,1.8397,1.8437,1.8437,1.8437]}]]